Tracking 19976 objects as of 15-Nov-2019
Live streaming from Space Station
objects crossing your sky now

COSMOS 1275 DEB

Track COSMOS 1275 DEB now!
10-day predictions


NORAD ID: 12746
Int'l Code: 1981-053CP
Perigee: 821.7 km
Apogee: 890.9 km
Inclination: 82.9 °
Period: 101.9 minutes
Semi major axis: 7227 km
RCS: 0.0761 m2 (small)
Launch date: June 4, 1981
Source: Commonwealth of Independent States (former USSR) (CIS)
Launch site: PLESETSK MISSILE AND SPACE COMPLEX (PKMTR)

Note: This is SATELLITE DEBRIS
aabbcc
Your satellite tracking list
Your tracking list is empty




NASA's NSSDC Master Catalog

Two Line Element Set (TLE):
1 12746U 81053CP  19318.16147320  .00000510  00000-0  26246-3 0  9992
2 12746  82.9409 271.8423 0047921 287.1844  72.4090 14.12985955945973
Source of the keplerian elements: AFSPC